M I D A S
Marine Information and Data Acquisition System
Tripno 1653 of the Zeeleeuw from 2009-03-04 08:25:30 to 2009-03-04 17:20:54
Back to CruiseResearch ActivitiesStationsMapUnderway DataData graphs

EquipmentUnitsComments
TimeDGPSUTC
LatitudeDGPSDM.mWGS84
LongitudeDGPSDM.mWGS84
SpeedMeteo Stationm/sRelative wind speed
DirectionMeteo StationdegRelative wind direction
TemperatureMeteo Stationdeg CelciusAir temperature
PressureMeteo StationPaAtmospheric pressure
HumidityMeteo Station%Relative humidity
Missing or incorrect values are displayed as -999
Metereological data collected by the RV Zeeleeuw from 2009-03-04 08:07:23 to 2009-03-04 17:24:59
                                                                                    Next 1000 lines
Time Latitude Longitude Speed Direction Temperature Pressure Humidity
2009-03-04 08:07:33 51°13.663 2°55.959 7.8 347 4.9 98360 81
2009-03-04 08:07:38 51°13.663 2°55.959 6.8 350 4.9 98360 81
2009-03-04 08:07:43 51°13.664 2°55.959 8 354 4.9 98350 82
2009-03-04 08:07:48 51°13.664 2°55.959 6.7 357 4.9 98350 82
2009-03-04 08:07:53 51°13.664 2°55.959 6.6 342 4.9 98350 82
2009-03-04 08:07:58 51°13.664 2°55.959 6.2 279 4.9 98350 82
2009-03-04 08:08:03 51°13.664 2°55.959 8.4 343 4.9 98350 82
2009-03-04 08:08:08 51°13.663 2°55.959 9.4 280 4.9 98350 82
2009-03-04 08:08:14 51°13.663 2°55.959 8.4 347 4.9 98360 82
2009-03-04 08:08:18 51°13.663 2°55.959 5.6 351 4.9 98360 82
2009-03-04 08:08:23 51°13.663 2°55.959 6.7 348 4.9 98350 81
2009-03-04 08:08:28 51°13.663 2°55.959 7.3 279 4.9 98350 81
2009-03-04 08:08:33 51°13.663 2°55.959 7 358 4.9 98350 82
2009-03-04 08:08:38 51°13.664 2°55.96 6.2 353 4.9 98350 82
2009-03-04 08:08:42 51°13.664 2°55.96 6.8 343 4.8 98350 81
2009-03-04 08:08:47 51°13.663 2°55.959 10 282 4.8 98350 81
2009-03-04 08:08:52 51°13.663 2°55.959 8 346 4.8 98350 82
2009-03-04 08:08:58 51°13.664 2°55.959 8.1 351 4.8 98350 82
2009-03-04 08:09:03 51°13.664 2°55.959 9.4 354 4.9 98360 82
2009-03-04 08:09:08 51°13.664 2°55.959 7.8 283 4.9 98360 82
2009-03-04 08:09:14 51°13.664 2°55.959 7.1 344 4.9 98350 83
2009-03-04 08:09:18 51°13.664 2°55.959 8.3 355 4.9 98350 83
2009-03-04 08:09:23 51°13.664 2°55.959 9.5 354 4.8 98350 82
2009-03-04 08:09:28 51°13.664 2°55.959 8.6 347 4.8 98350 82
2009-03-04 08:09:33 51°13.664 2°55.959 10.2 350 4.8 98360 82
2009-03-04 08:09:38 51°13.664 2°55.958 10.1 280 4.8 98360 82
2009-03-04 08:09:43 51°13.664 2°55.958 11.6 346 4.8 98350 81
2009-03-04 08:09:49 51°13.664 2°55.958 9.9 279 4.8 98350 81
2009-03-04 08:09:53 51°13.663 2°55.958 9.3 354 4.8 98350 83
2009-03-04 08:09:58 51°13.664 2°55.958 8.7 356 4.8 98350 83
2009-03-04 08:10:03 51°13.664 2°55.959 6.3 342 4.8 98350 82
2009-03-04 08:10:08 51°13.664 2°55.959 6.9 352 4.8 98350 82
2009-03-04 08:10:13 51°13.664 2°55.959 9.2 351 4.8 98350 82
2009-03-04 08:10:18 51°13.664 2°55.959 8.1 351 4.8 98350 82
2009-03-04 08:10:23 51°13.664 2°55.959 6.4 346 4.8 98350 82
2009-03-04 08:10:29 51°13.664 2°55.959 9.2 283 4.8 98350 82
2009-03-04 08:10:33 51°13.664 2°55.959 7 352 4.8 98350 82
2009-03-04 08:10:38 51°13.664 2°55.959 9.1 353 4.8 98350 82
2009-03-04 08:10:42 51°13.664 2°55.959 8.4 352 4.8 98360 83
2009-03-04 08:10:48 51°13.664 2°55.959 7.5 281 4.8 98360 83
2009-03-04 08:10:53 51°13.664 2°55.959 6.5 -999 4.8 98360 83
2009-03-04 08:10:58 51°13.664 2°55.959 7.2 347 4.8 98360 83
2009-03-04 08:11:03 51°13.664 2°55.959 6.8 344 4.8 98350 82
2009-03-04 08:11:08 51°13.664 2°55.959 7.1 352 4.8 98350 82
2009-03-04 08:11:14 51°13.664 2°55.959 7 353 4.8 98360 83
2009-03-04 08:11:18 51°13.664 2°55.959 7.2 287 4.8 98360 83
2009-03-04 08:11:23 51°13.664 2°55.959 8.7 349 4.8 98350 82
2009-03-04 08:11:28 51°13.664 2°55.959 4.9 353 4.8 98350 82
2009-03-04 08:11:33 51°13.664 2°55.959 5.8 3 4.8 98350 82
2009-03-04 08:11:38 51°13.664 2°55.959 7.6 3 4.8 98350 82
2009-03-04 08:11:43 51°13.664 2°55.959 7.2 347 4.8 98350 83
2009-03-04 08:11:48 51°13.664 2°55.959 8.8 280 4.8 98350 83
2009-03-04 08:11:53 51°13.663 2°55.958 7.5 356 4.8 98360 82
2009-03-04 08:11:58 51°13.664 2°55.959 5.7 351 4.8 98360 82
2009-03-04 08:12:03 51°13.664 2°55.959 6.7 353 4.8 98350 82
2009-03-04 08:12:08 51°13.664 2°55.959 5.8 6 4.8 98350 82
2009-03-04 08:12:13 51°13.664 2°55.959 5.3 354 4.8 98360 83
2009-03-04 08:12:18 51°13.664 2°55.959 6.4 3 4.8 98360 83
2009-03-04 08:12:22 51°13.664 2°55.959 9 1 4.8 98350 82
2009-03-04 08:12:27 51°13.663 2°55.959 5.9 286 4.8 98350 82
2009-03-04 08:12:32 51°13.663 2°55.959 6 350 4.8 98350 83
2009-03-04 08:12:37 51°13.663 2°55.959 5.3 358 4.8 98350 83
2009-03-04 08:12:42 51°13.663 2°55.959 5.6 355 4.8 98360 82
2009-03-04 08:12:47 51°13.663 2°55.959 4.6 281 4.8 98360 82
2009-03-04 08:12:52 51°13.663 2°55.959 5 341 4.8 98360 82
2009-03-04 08:12:58 51°13.663 2°55.959 6.5 279 4.8 98360 82
2009-03-04 08:13:03 51°13.663 2°55.959 6.1 344 4.9 98350 82
2009-03-04 08:13:09 51°13.663 2°55.959 6.2 287 4.9 98350 82
2009-03-04 08:13:13 51°13.663 2°55.959 7 350 4.8 98350 82
2009-03-04 08:13:18 51°13.663 2°55.959 6.4 352 4.8 98350 82
2009-03-04 08:13:23 51°13.663 2°55.959 5.2 356 4.8 98360 82
2009-03-04 08:13:28 51°13.661 2°55.959 5.2 351 4.8 98360 82
2009-03-04 08:13:34 51°13.661 2°55.959 7.2 354 4.8 98360 82
2009-03-04 08:13:38 51°13.661 2°55.959 6.3 352 4.8 98360 82
2009-03-04 08:13:43 51°13.661 2°55.959 7.3 353 4.8 98360 83
2009-03-04 08:13:48 51°13.661 2°55.959 5.6 354 4.8 98360 83
2009-03-04 08:13:53 51°13.662 2°55.959 8.4 340 4.8 98350 82
2009-03-04 08:13:58 51°13.662 2°55.959 8.9 279 4.8 98350 82
2009-03-04 08:14:02 51°13.663 2°55.959 8.9 349 4.8 98360 82
2009-03-04 08:14:07 51°13.664 2°55.959 7.4 283 4.8 98360 82
2009-03-04 08:14:12 51°13.664 2°55.96 10 347 4.8 98360 83
2009-03-04 08:14:18 51°13.664 2°55.96 7.6 354 4.8 98360 83
2009-03-04 08:14:22 51°13.664 2°55.96 10.3 356 4.8 98350 83
2009-03-04 08:14:28 51°13.664 2°55.959 11 352 4.8 98350 83
2009-03-04 08:14:33 51°13.664 2°55.959 8.2 342 4.8 98350 83
2009-03-04 08:14:38 51°13.664 2°55.96 8.3 280 4.8 98350 83
2009-03-04 08:14:43 51°13.664 2°55.96 8.1 349 4.8 98360 83
2009-03-04 08:14:48 51°13.664 2°55.96 8.1 354 4.8 98360 83
2009-03-04 08:14:53 51°13.664 2°55.96 8.5 355 4.8 98340 83
2009-03-04 08:14:58 51°13.664 2°55.96 8.5 353 4.8 98340 83
2009-03-04 08:15:03 51°13.665 2°55.96 11.3 345 4.8 98350 82
2009-03-04 08:15:07 51°13.665 2°55.96 9 348 4.8 98350 82
2009-03-04 08:15:12 51°13.665 2°55.96 8.1 351 4.8 98360 82
2009-03-04 08:15:17 51°13.665 2°55.96 8.2 355 4.8 98360 82
2009-03-04 08:15:22 51°13.665 2°55.96 8 350 4.8 98350 83
2009-03-04 08:15:27 51°13.665 2°55.96 7.4 350 4.8 98350 83
2009-03-04 08:15:32 51°13.665 2°55.959 9.3 4 4.8 98360 83
2009-03-04 08:15:37 51°13.665 2°55.959 8.2 -999 4.8 98360 83
2009-03-04 08:15:41 51°13.665 2°55.959 6.5 356 4.8 98360 82
2009-03-04 08:15:46 51°13.665 2°55.959 5 353 4.8 98360 82
2009-03-04 08:15:51 51°13.665 2°55.959 6.5 341 4.8 98360 82
2009-03-04 08:15:56 51°13.665 2°55.959 6 353 4.8 98360 82
2009-03-04 08:16:01 51°13.665 2°55.959 7.8 347 4.8 98350 83
2009-03-04 08:16:06 51°13.664 2°55.959 7.6 348 4.8 98350 83
2009-03-04 08:16:11 51°13.664 2°55.96 5.7 352 4.8 98360 82
2009-03-04 08:16:16 51°13.664 2°55.959 6.3 349 4.8 98360 82
2009-03-04 08:16:22 51°13.664 2°55.959 6.1 347 4.8 98360 82
2009-03-04 08:16:27 51°13.664 2°55.959 4.5 284 4.8 98360 82
2009-03-04 08:16:32 51°13.664 2°55.959 7.3 350 4.8 98360 83
2009-03-04 08:16:37 51°13.664 2°55.959 7.6 355 4.8 98360 83
2009-03-04 08:16:42 51°13.664 2°55.959 10.9 348 4.8 98350 83
2009-03-04 08:16:47 51°13.664 2°55.959 8.9 279 4.8 98350 83
2009-03-04 08:16:51 51°13.664 2°55.959 9.6 355 4.8 98360 82
2009-03-04 08:16:56 51°13.664 2°55.959 10.6 351 4.8 98360 82
2009-03-04 08:17:02 51°13.664 2°55.959 7.2 350 4.8 98360 83
2009-03-04 08:17:07 51°13.664 2°55.959 11.4 348 4.8 98360 83
2009-03-04 08:17:13 51°13.664 2°55.959 13.5 340 4.8 98350 83
2009-03-04 08:17:18 51°13.664 2°55.959 11.6 347 4.8 98350 83
2009-03-04 08:17:23 51°13.664 2°55.959 11.4 350 4.8 98350 82
2009-03-04 08:17:28 51°13.664 2°55.959 9.2 359 4.8 98350 82
2009-03-04 08:17:33 51°13.664 2°55.959 10 355 4.8 98360 83
2009-03-04 08:17:38 51°13.664 2°55.959 7.2 356 4.8 98360 83
2009-03-04 08:17:42 51°13.664 2°55.959 7 352 4.8 98350 82
2009-03-04 08:17:47 51°13.664 2°55.959 6.3 343 4.8 98350 82
2009-03-04 08:17:52 51°13.664 2°55.959 8.9 344 4.8 98360 82
2009-03-04 08:17:57 51°13.664 2°55.959 7.4 354 4.8 98360 82
2009-03-04 08:18:02 51°13.664 2°55.959 7.6 352 4.8 98360 83
2009-03-04 08:18:07 51°13.664 2°55.959 6.9 281 4.8 98360 83
2009-03-04 08:18:11 51°13.664 2°55.959 6.4 350 4.8 98350 83
2009-03-04 08:18:16 51°13.664 2°55.959 6.5 279 4.8 98350 83
2009-03-04 08:18:21 51°13.664 2°55.959 4.8 356 4.8 98350 83
2009-03-04 08:18:26 51°13.664 2°55.959 9 284 4.8 98350 83
2009-03-04 08:18:31 51°13.664 2°55.959 6 351 4.8 98350 82
2009-03-04 08:18:36 51°13.664 2°55.959 8 357 4.8 98350 82
2009-03-04 08:18:41 51°13.664 2°55.959 7.5 -999 4.8 98360 83
2009-03-04 08:18:47 51°13.664 2°55.959 5.6 359 4.8 98360 83
2009-03-04 08:18:52 51°13.664 2°55.959 6.1 352 4.8 98360 83
2009-03-04 08:18:58 51°13.664 2°55.959 6.8 359 4.8 98360 83
2009-03-04 08:19:03 51°13.664 2°55.959 6.7 346 4.8 98360 82
2009-03-04 08:19:08 51°13.664 2°55.959 10.1 359 4.8 98360 82
2009-03-04 08:19:13 51°13.664 2°55.96 6.4 348 4.8 98350 83
2009-03-04 08:19:18 51°13.664 2°55.96 5.4 349 4.8 98350 83
2009-03-04 08:19:23 51°13.664 2°55.96 5 348 4.8 98350 82
2009-03-04 08:19:28 51°13.664 2°55.96 4.9 280 4.8 98350 82
2009-03-04 08:19:33 51°13.664 2°55.96 6.4 337 4.8 98360 82
2009-03-04 08:19:38 51°13.663 2°55.959 4.2 349 4.8 98360 82
2009-03-04 08:19:43 51°13.663 2°55.959 7.5 344 4.8 98360 83
2009-03-04 08:19:48 51°13.663 2°55.959 9.2 280 4.8 98360 83
2009-03-04 08:19:52 51°13.663 2°55.959 8.8 351 4.8 98350 83
2009-03-04 08:19:58 51°13.663 2°55.959 6.9 357 4.8 98350 83
2009-03-04 08:20:03 51°13.663 2°55.959 7.4 359 4.8 98350 83
2009-03-04 08:20:08 51°13.663 2°55.959 7.6 286 4.8 98350 83
2009-03-04 08:20:13 51°13.663 2°55.959 11.1 347 4.8 98360 83
2009-03-04 08:20:18 51°13.663 2°55.959 11.9 351 4.8 98360 83
2009-03-04 08:20:23 51°13.664 2°55.959 9.6 348 4.8 98350 83
2009-03-04 08:20:28 51°13.664 2°55.959 8.9 351 4.8 98350 83
2009-03-04 08:20:33 51°13.664 2°55.959 8.8 353 4.8 98350 83
2009-03-04 08:20:38 51°13.664 2°55.959 9.7 353 4.8 98350 83
2009-03-04 08:20:43 51°13.664 2°55.959 8 7 4.8 98350 83
2009-03-04 08:20:48 51°13.664 2°55.959 5.7 2 4.8 98350 83
2009-03-04 08:20:53 51°13.664 2°55.959 5.8 346 4.8 98350 83
2009-03-04 08:20:58 51°13.664 2°55.959 5.4 280 4.8 98350 83
2009-03-04 08:21:03 51°13.664 2°55.959 7 344 4.7 98350 82
2009-03-04 08:21:08 51°13.664 2°55.959 5.6 281 4.7 98350 82
2009-03-04 08:21:12 51°13.664 2°55.959 8.5 349 4.8 98350 83
2009-03-04 08:21:17 51°13.664 2°55.959 5.5 3 4.8 98350 83
2009-03-04 08:21:22 51°13.664 2°55.959 7.1 349 4.8 98360 82
2009-03-04 08:21:27 51°13.663 2°55.959 6.8 281 4.8 98360 82
2009-03-04 08:21:33 51°13.664 2°55.959 8.8 343 4.8 98360 83
2009-03-04 08:21:38 51°13.663 2°55.959 8.8 355 4.8 98360 83
2009-03-04 08:21:43 51°13.663 2°55.959 9.6 351 4.8 98360 83
2009-03-04 08:21:48 51°13.663 2°55.959 9.4 280 4.8 98360 83
2009-03-04 08:21:52 51°13.663 2°55.96 8.9 348 4.8 98360 82
2009-03-04 08:21:57 51°13.663 2°55.96 8.9 352 4.8 98360 82
2009-03-04 08:22:02 51°13.663 2°55.96 8.4 342 4.8 98360 83
2009-03-04 08:22:07 51°13.663 2°55.96 9.1 355 4.8 98360 83
2009-03-04 08:22:12 51°13.663 2°55.96 8.4 352 4.8 98350 82
2009-03-04 08:22:18 51°13.663 2°55.96 8.1 349 4.8 98350 82
2009-03-04 08:22:23 51°13.663 2°55.96 7.5 347 4.8 98350 83
2009-03-04 08:22:28 51°13.663 2°55.96 8.9 284 4.8 98350 83
2009-03-04 08:22:33 51°13.663 2°55.96 7.9 342 4.8 98360 82
2009-03-04 08:22:38 51°13.663 2°55.96 7.5 350 4.8 98360 82
2009-03-04 08:22:43 51°13.663 2°55.96 7.4 351 4.8 98360 82
2009-03-04 08:22:48 51°13.663 2°55.96 8 283 4.8 98360 82
2009-03-04 08:22:52 51°13.663 2°55.96 7.4 346 4.8 98350 83
2009-03-04 08:22:58 51°13.663 2°55.96 7 352 4.8 98350 83
2009-03-04 08:23:02 51°13.663 2°55.96 6.2 352 4.7 98350 82
2009-03-04 08:23:07 51°13.663 2°55.96 7.9 357 4.7 98350 82
2009-03-04 08:23:12 51°13.663 2°55.96 6.9 343 4.7 98350 82
2009-03-04 08:23:17 51°13.663 2°55.96 8.2 284 4.7 98350 82
2009-03-04 08:23:22 51°13.663 2°55.96 8.9 357 4.8 98350 83
2009-03-04 08:23:27 51°13.663 2°55.96 8 350 4.8 98350 83
2009-03-04 08:23:32 51°13.663 2°55.96 5.9 5 4.8 98350 83
2009-03-04 08:23:38 51°13.663 2°55.959 5.8 283 4.8 98350 83
2009-03-04 08:23:43 51°13.663 2°55.959 8 359 4.8 98360 82
2009-03-04 08:23:48 51°13.663 2°55.959 10 349 4.8 98360 82
2009-03-04 08:23:52 51°13.663 2°55.959 7.7 354 4.8 98360 83
2009-03-04 08:23:57 51°13.662 2°55.96 6.9 348 4.8 98360 83
2009-03-04 08:24:02 51°13.662 2°55.96 6.8 350 4.7 98360 83
2009-03-04 08:24:08 51°13.662 2°55.96 5.1 283 4.7 98360 83
2009-03-04 08:24:12 51°13.662 2°55.96 4.2 344 4.7 98360 83
2009-03-04 08:24:18 51°13.662 2°55.96 8.9 280 4.7 98360 83
2009-03-04 08:24:23 51°13.662 2°55.959 9.5 344 4.7 98360 83
2009-03-04 08:24:28 51°13.662 2°55.959 13.1 280 4.7 98360 83
2009-03-04 08:24:33 51°13.662 2°55.959 12.7 349 4.7 98360 83
2009-03-04 08:24:38 51°13.662 2°55.959 12.5 349 4.7 98360 83
2009-03-04 08:24:43 51°13.662 2°55.959 11.5 356 4.7 98360 83
2009-03-04 08:24:48 51°13.662 2°55.959 10 352 4.7 98360 83
2009-03-04 08:24:53 51°13.662 2°55.959 8.9 340 4.7 98350 83
2009-03-04 08:24:58 51°13.662 2°55.959 7.9 355 4.7 98350 83
2009-03-04 08:25:03 51°13.662 2°55.959 9.4 348 4.7 98350 82
2009-03-04 08:25:08 51°13.662 2°55.96 8.1 283 4.7 98350 82
2009-03-04 08:25:12 51°13.662 2°55.96 5.4 344 4.7 98350 82
2009-03-04 08:25:18 51°13.662 2°55.96 5.5 351 4.7 98350 82
2009-03-04 08:25:22 51°13.662 2°55.96 10.1 1 4.7 98370 83
2009-03-04 08:25:27 51°13.662 2°55.96 8.6 359 4.7 98370 83
2009-03-04 08:25:32 51°13.662 2°55.96 9.2 351 4.7 98360 83
2009-03-04 08:25:38 51°13.662 2°55.96 6.1 353 4.7 98360 83
2009-03-04 08:25:42 51°13.662 2°55.96 9.6 351 4.7 98360 82
2009-03-04 08:25:47 51°13.662 2°55.96 9.8 352 4.7 98360 82
2009-03-04 08:25:52 51°13.662 2°55.96 5.8 7 4.7 98360 83
2009-03-04 08:25:56 51°13.662 2°55.96 5.8 3 4.7 98360 83
2009-03-04 08:26:01 51°13.662 2°55.96 5.9 359 4.7 98360 83
2009-03-04 08:26:07 51°13.662 2°55.96 6.4 353 4.7 98360 83
2009-03-04 08:26:11 51°13.662 2°55.96 6 354 4.7 98360 82
2009-03-04 08:26:16 51°13.662 2°55.96 6.2 6 4.7 98360 82
2009-03-04 08:26:21 51°13.661 2°55.96 7.4 3 4.7 98360 83
2009-03-04 08:26:26 51°13.661 2°55.96 7.9 357 4.7 98360 83
2009-03-04 08:26:31 51°13.661 2°55.959 5.5 10 4.7 98360 82
2009-03-04 08:26:36 51°13.661 2°55.959 5.4 2 4.7 98360 82
2009-03-04 08:26:42 51°13.661 2°55.959 7.9 355 4.7 98360 82
2009-03-04 08:26:47 51°13.661 2°55.959 8.9 357 4.7 98360 82
2009-03-04 08:26:52 51°13.661 2°55.959 4.4 356 4.7 98350 83
2009-03-04 08:26:57 51°13.661 2°55.959 9.5 350 4.7 98350 83
2009-03-04 08:27:02 51°13.661 2°55.958 6.4 354 4.8 98360 83
2009-03-04 08:27:07 51°13.662 2°55.957 6.4 355 4.8 98360 83
2009-03-04 08:27:12 51°13.662 2°55.954 8.9 4 4.7 98360 82
2009-03-04 08:27:17 51°13.663 2°55.951 6.1 354 4.7 98360 82
2009-03-04 08:27:22 51°13.664 2°55.946 6.8 4 4.7 98360 83
2009-03-04 08:27:27 51°13.666 2°55.942 8.1 6 4.7 98360 83
2009-03-04 08:27:32 51°13.667 2°55.937 7.1 3 4.7 98350 83
2009-03-04 08:27:38 51°13.669 2°55.93 8.2 8 4.7 98350 83
2009-03-04 08:27:43 51°13.671 2°55.924 6.2 18 4.7 98350 83
2009-03-04 08:27:48 51°13.672 2°55.918 5 14 4.7 98350 83
2009-03-04 08:27:53 51°13.674 2°55.912 7.7 22 4.7 98360 82
2009-03-04 08:27:58 51°13.675 2°55.906 7 27 4.7 98360 82
2009-03-04 08:28:03 51°13.676 2°55.9 10.4 22 4.7 98360 83
2009-03-04 08:28:08 51°13.677 2°55.896 7 21 4.7 98360 83
2009-03-04 08:28:13 51°13.677 2°55.893 11.5 19 4.7 98370 83
2009-03-04 08:28:18 51°13.678 2°55.891 10 16 4.7 98370 83
2009-03-04 08:28:23 51°13.679 2°55.888 8 12 4.7 98370 82
2009-03-04 08:28:28 51°13.679 2°55.886 7.6 13 4.7 98370 82
2009-03-04 08:28:33 51°13.68 2°55.883 6.9 3 4.7 98360 83
2009-03-04 08:28:38 51°13.681 2°55.879 4.4 11 4.7 98360 83
2009-03-04 08:28:42 51°13.681 2°55.876 4.6 18 4.7 98360 83
2009-03-04 08:28:47 51°13.682 2°55.871 5.2 17 4.7 98360 83
2009-03-04 08:28:52 51°13.683 2°55.867 8.6 22 4.7 98360 83
2009-03-04 08:28:57 51°13.683 2°55.862 7.7 18 4.7 98360 83
2009-03-04 08:29:03 51°13.684 2°55.855 8.1 17 4.7 98350 83
2009-03-04 08:29:08 51°13.684 2°55.85 8.6 23 4.7 98350 83
2009-03-04 08:29:13 51°13.684 2°55.844 7.2 20 4.7 98350 83
2009-03-04 08:29:18 51°13.685 2°55.838 6 8 4.7 98350 83
2009-03-04 08:29:23 51°13.685 2°55.832 5.1 20 4.7 98350 83
2009-03-04 08:29:28 51°13.685 2°55.825 4.5 35 4.7 98350 83
2009-03-04 08:29:33 51°13.684 2°55.818 4.8 31 4.7 98360 83
2009-03-04 08:29:38 51°13.684 2°55.812 5.1 37 4.7 98360 83
2009-03-04 08:29:43 51°13.684 2°55.806 7.1 23 4.7 98360 83
2009-03-04 08:29:48 51°13.683 2°55.8 6.8 23 4.7 98360 83
2009-03-04 08:29:53 51°13.683 2°55.794 7.3 28 4.7 98360 83
2009-03-04 08:29:58 51°13.682 2°55.788 6.1 28 4.7 98360 83
2009-03-04 08:30:03 51°13.682 2°55.784 5.1 33 4.7 98370 82
2009-03-04 08:30:08 51°13.682 2°55.781 6.1 27 4.7 98370 82
2009-03-04 08:30:13 51°13.682 2°55.779 5.8 33 4.7 98360 83
2009-03-04 08:30:18 51°13.682 2°55.777 6.6 27 4.7 98360 83
2009-03-04 08:30:23 51°13.683 2°55.776 5.6 44 4.7 98360 82
2009-03-04 08:30:28 51°13.684 2°55.777 5.3 78 4.7 98360 82
2009-03-04 08:30:32 51°13.685 2°55.777 3.8 41 4.7 98370 83
2009-03-04 08:30:37 51°13.687 2°55.778 4.9 30 4.7 98370 83
2009-03-04 08:30:42 51°13.689 2°55.779 9.1 23 4.7 98360 83
2009-03-04 08:30:47 51°13.691 2°55.78 8.4 78 4.7 98360 83
2009-03-04 08:30:52 51°13.694 2°55.781 7.5 25 4.7 98360 83
2009-03-04 08:30:57 51°13.696 2°55.781 8.7 76 4.7 98360 83
2009-03-04 08:31:02 51°13.698 2°55.782 7.9 25 4.7 98370 84
2009-03-04 08:31:07 51°13.699 2°55.782 7 74 4.7 98370 84
2009-03-04 08:31:12 51°13.7 2°55.781 4.2 23 4.7 98360 83
2009-03-04 08:31:17 51°13.7 2°55.781 3.7 40 4.7 98360 83
2009-03-04 08:31:22 51°13.7 2°55.781 4.7 26 4.7 98360 84
2009-03-04 08:31:27 51°13.7 2°55.78 2.9 76 4.7 98360 84
2009-03-04 08:31:32 51°13.7 2°55.78 5.8 24 4.7 98370 83
2009-03-04 08:31:37 51°13.7 2°55.779 4.6 81 4.7 98370 83
2009-03-04 08:31:43 51°13.701 2°55.779 8.5 27 4.7 98360 83
2009-03-04 08:31:48 51°13.703 2°55.778 5.2 82 4.7 98360 83
2009-03-04 08:31:53 51°13.705 2°55.776 9.8 26 4.7 98360 83
2009-03-04 08:31:58 51°13.707 2°55.774 10.5 76 4.7 98360 83
2009-03-04 08:32:03 51°13.71 2°55.772 8.1 21 4.7 98370 83
2009-03-04 08:32:08 51°13.714 2°55.768 9.5 78 4.7 98370 83
2009-03-04 08:32:13 51°13.718 2°55.764 7.2 24 4.7 98360 83
2009-03-04 08:32:18 51°13.723 2°55.758 8.2 77 4.7 98360 83
2009-03-04 08:32:23 51°13.728 2°55.751 7.6 20 4.7 98390 83
2009-03-04 08:32:28 51°13.734 2°55.742 10.5 83 4.7 98390 83
2009-03-04 08:32:33 51°13.74 2°55.733 7.6 24 4.7 98380 82
2009-03-04 08:32:38 51°13.748 2°55.724 8.4 75 4.7 98380 82
2009-03-04 08:32:43 51°13.755 2°55.714 6.5 20 4.7 98370 84
2009-03-04 08:32:48 51°13.763 2°55.705 3.9 80 4.7 98370 84
2009-03-04 08:32:53 51°13.772 2°55.695 4.9 20 4.7 98370 82
2009-03-04 08:32:58 51°13.781 2°55.685 4.4 80 4.7 98370 82
2009-03-04 08:33:03 51°13.79 2°55.676 4.9 20 4.7 98380 83
2009-03-04 08:33:07 51°13.797 2°55.668 4.6 78 4.7 98380 83
2009-03-04 08:33:12 51°13.807 2°55.659 4.7 26 4.7 98370 82
2009-03-04 08:33:17 51°13.818 2°55.65 3.8 79 4.7 98370 82
2009-03-04 08:33:22 51°13.828 2°55.641 4.3 19 4.7 98360 83
2009-03-04 08:33:27 51°13.839 2°55.632 2.7 81 4.7 98360 83
2009-03-04 08:33:31 51°13.848 2°55.625 2.3 266 4.7 98370 83
2009-03-04 08:33:36 51°13.858 2°55.616 2.8 75 4.7 98370 83
2009-03-04 08:33:41 51°13.869 2°55.608 4.2 20 4.7 98360 83
2009-03-04 08:33:46 51°13.88 2°55.599 3 280 4.7 98360 83
2009-03-04 08:33:51 51°13.892 2°55.59 2.8 26 4.7 98360 83
2009-03-04 08:33:56 51°13.903 2°55.582 2.2 4 4.7 98360 83
2009-03-04 08:34:00 51°13.912 2°55.575 0.2 26 4.7 98370 84
2009-03-04 08:34:05 51°13.923 2°55.566 2.8 74 4.7 98370 84
2009-03-04 08:34:10 51°13.935 2°55.558 2.3 27 4.7 98360 83
2009-03-04 08:34:15 51°13.946 2°55.549 1.5 81 4.7 98360 83
2009-03-04 08:34:19 51°13.956 2°55.542 2.8 25 4.7 98360 83
2009-03-04 08:34:24 51°13.968 2°55.534 3 81 4.7 98360 83
2009-03-04 08:34:29 51°13.979 2°55.526 3.4 27 4.7 98370 83
2009-03-04 08:34:35 51°13.993 2°55.515 3.5 80 4.7 98370 83
2009-03-04 08:34:39 51°14.002 2°55.509 3.1 260 4.7 98370 83
2009-03-04 08:34:44 51°14.014 2°55.5 3.3 280 4.7 98370 83
2009-03-04 08:34:48 51°14.023 2°55.494 3.1 17 4.7 98370 84
2009-03-04 08:34:55 51°14.039 2°55.482 2.6 77 4.7 98370 84
2009-03-04 08:34:59 51°14.049 2°55.475 6.2 27 4.7 98370 83
2009-03-04 08:35:04 51°14.06 2°55.466 4.7 77 4.7 98370 83
2009-03-04 08:35:09 51°14.072 2°55.458 3.2 20 4.7 98370 83
2009-03-04 08:35:15 51°14.086 2°55.447 4.5 75 4.7 98370 83
2009-03-04 08:35:19 51°14.095 2°55.44 5.2 23 4.7 98370 84
2009-03-04 08:35:25 51°14.109 2°55.429 3.9 285 4.7 98370 84
2009-03-04 08:35:29 51°14.118 2°55.422 4.8 270 4.7 98370 83
2009-03-04 08:35:34 51°14.13 2°55.412 7.6 84 4.7 98370 83
2009-03-04 08:35:39 51°14.142 2°55.403 7.9 22 4.7 98370 83
2009-03-04 08:35:45 51°14.155 2°55.391 5 283 4.7 98370 83
2009-03-04 08:35:51 51°14.168 2°55.379 4 263 4.7 98370 83
2009-03-04 08:35:56 51°14.179 2°55.368 4.1 284 4.7 98370 83
2009-03-04 08:36:01 51°14.19 2°55.357 5 262 4.7 98370 84
2009-03-04 08:36:07 51°14.203 2°55.343 4.4 284 4.7 98370 84
2009-03-04 08:36:12 51°14.214 2°55.33 4.6 23 4.7 98370 83
2009-03-04 08:36:18 51°14.226 2°55.314 4.6 285 4.7 98370 83
2009-03-04 08:36:23 51°14.236 2°55.301 5.7 28 4.7 98360 83
2009-03-04 08:36:28 51°14.246 2°55.287 6.4 285 4.7 98360 83
2009-03-04 08:36:32 51°14.254 2°55.275 6.1 22 4.7 98370 83
2009-03-04 08:36:38 51°14.265 2°55.257 4.5 80 4.7 98370 83
2009-03-04 08:36:42 51°14.273 2°55.244 5.8 30 4.7 98370 83
2009-03-04 08:36:47 51°14.282 2°55.228 5.3 78 4.7 98370 83
2009-03-04 08:36:52 51°14.291 2°55.213 4.8 17 4.7 98370 83
2009-03-04 08:36:57 51°14.3 2°55.197 2.8 286 4.7 98370 83
2009-03-04 08:37:02 51°14.309 2°55.18 2.2 23 4.7 98370 83
2009-03-04 08:37:07 51°14.319 2°55.164 1.3 283 4.7 98370 83
2009-03-04 08:37:11 51°14.326 2°55.15 3 26 4.7 98370 83
2009-03-04 08:37:16 51°14.335 2°55.134 2.9 282 4.7 98370 83
2009-03-04 08:37:21 51°14.344 2°55.116 5 23 4.7 98370 83
2009-03-04 08:37:26 51°14.353 2°55.099 9.6 282 4.7 98370 83
2009-03-04 08:37:31 51°14.362 2°55.081 8.5 27 4.7 98370 83
2009-03-04 08:37:35 51°14.369 2°55.066 8.4 285 4.7 98370 83
2009-03-04 08:37:40 51°14.378 2°55.048 10.2 19 4.6 98370 83
2009-03-04 08:37:45 51°14.388 2°55.029 9.2 279 4.6 98370 83
2009-03-04 08:37:50 51°14.397 2°55.01 5.3 262 4.6 98360 84
2009-03-04 08:37:55 51°14.406 2°54.991 7.6 280 4.6 98360 84
2009-03-04 08:37:59 51°14.414 2°54.976 6.5 260 4.6 98360 83
2009-03-04 08:38:03 51°14.421 2°54.96 9.1 281 4.6 98360 83
2009-03-04 08:38:09 51°14.433 2°54.937 7.8 252 4.6 98360 84
2009-03-04 08:38:15 51°14.444 2°54.912 8.2 282 4.6 98360 84
2009-03-04 08:38:19 51°14.452 2°54.896 8.2 257 4.6 98360 83
2009-03-04 08:38:24 51°14.462 2°54.875 8.1 280 4.6 98360 83
2009-03-04 08:38:29 51°14.472 2°54.855 6.6 21 4.6 98370 83
2009-03-04 08:38:34 51°14.481 2°54.833 8.4 281 4.6 98370 83
2009-03-04 08:38:39 51°14.49 2°54.81 10.9 254 4.6 98350 83
2009-03-04 08:38:43 51°14.497 2°54.792 11.3 282 4.6 98350 83
2009-03-04 08:38:49 51°14.508 2°54.765 10.8 253 4.6 98360 84
2009-03-04 08:38:54 51°14.517 2°54.742 12.5 287 4.6 98360 84
2009-03-04 08:38:59 51°14.526 2°54.719 11.1 259 4.7 98360 83
2009-03-04 08:39:04 51°14.535 2°54.696 11.4 284 4.7 98360 83
2009-03-04 08:39:09 51°14.545 2°54.674 13.5 254 4.6 98380 83
2009-03-04 08:39:15 51°14.556 2°54.645 13 281 4.6 98380 83
2009-03-04 08:39:19 51°14.563 2°54.627 12.5 251 4.6 98370 83
2009-03-04 08:39:23 51°14.571 2°54.609 13.5 278 4.6 98370 83
2009-03-04 08:39:29 51°14.582 2°54.582 12.4 255 4.6 98360 83
2009-03-04 08:39:34 51°14.591 2°54.558 10.2 286 4.6 98360 83
2009-03-04 08:39:39 51°14.6 2°54.535 10.8 252 4.6 98370 84
2009-03-04 08:39:44 51°14.608 2°54.511 8.4 281 4.6 98370 84
2009-03-04 08:39:49 51°14.617 2°54.488 12.2 254 4.6 98360 84
2009-03-04 08:39:54 51°14.625 2°54.464 10.3 278 4.6 98360 84
2009-03-04 08:39:59 51°14.634 2°54.44 8 260 4.6 98360 83
2009-03-04 08:40:03 51°14.64 2°54.421 5.7 280 4.6 98360 83
2009-03-04 08:40:09 51°14.65 2°54.393 9.6 253 4.6 98360 84
2009-03-04 08:40:14 51°14.659 2°54.369 10.7 281 4.6 98360 84
2009-03-04 08:40:19 51°14.667 2°54.345 10 255 4.6 98380 84
2009-03-04 08:40:24 51°14.676 2°54.322 12.3 284 4.6 98380 84
2009-03-04 08:40:29 51°14.684 2°54.298 9.6 253 4.6 98360 83
2009-03-04 08:40:34 51°14.693 2°54.275 12.8 281 4.6 98360 83
2009-03-04 08:40:39 51°14.701 2°54.251 11.3 247 4.7 98360 83
2009-03-04 08:40:43 51°14.708 2°54.232 11.3 287 4.7 98360 83
2009-03-04 08:40:49 51°14.718 2°54.203 11.4 251 4.7 98360 83
2009-03-04 08:40:54 51°14.725 2°54.179 11.5 284 4.7 98360 83
2009-03-04 08:40:59 51°14.733 2°54.156 12.2 252 4.6 98360 84
2009-03-04 08:41:04 51°14.741 2°54.132 12.6 280 4.6 98360 84
2009-03-04 08:41:09 51°14.749 2°54.108 14 254 4.7 98350 83
2009-03-04 08:41:14 51°14.757 2°54.084 14 284 4.7 98350 83
2009-03-04 08:41:19 51°14.765 2°54.06 12.8 258 4.7 98360 83
2009-03-04 08:41:24 51°14.772 2°54.037 14.9 282 4.7 98360 83
2009-03-04 08:41:29 51°14.78 2°54.014 11.4 257 4.6 98350 85
2009-03-04 08:41:35 51°14.79 2°53.985 12.3 284 4.6 98350 85
2009-03-04 08:41:39 51°14.797 2°53.967 12.5 254 4.6 98360 85
2009-03-04 08:41:43 51°14.803 2°53.948 9.5 281 4.6 98360 85
2009-03-04 08:41:49 51°14.814 2°53.921 13.1 256 4.6 98360 85
2009-03-04 08:41:54 51°14.822 2°53.898 13.2 281 4.6 98360 85
2009-03-04 08:41:59 51°14.831 2°53.875 10.7 250 4.6 98360 85
2009-03-04 08:42:04 51°14.839 2°53.852 10.7 285 4.6 98360 85
2009-03-04 08:42:09 51°14.848 2°53.829 12.4 257 4.7 98370 83
2009-03-04 08:42:14 51°14.856 2°53.805 11.7 281 4.7 98370 83
2009-03-04 08:42:19 51°14.863 2°53.782 13.5 253 4.7 98370 85
2009-03-04 08:42:23 51°14.87 2°53.763 14.7 283 4.7 98370 85
2009-03-04 08:42:29 51°14.878 2°53.734 13.3 256 4.7 98360 85
2009-03-04 08:42:34 51°14.886 2°53.71 14.4 284 4.7 98360 85
2009-03-04 08:42:39 51°14.892 2°53.685 18.9 260 4.6 98360 85
2009-03-04 08:42:44 51°14.899 2°53.661 10.3 281 4.6 98360 85
2009-03-04 08:42:49 51°14.906 2°53.637 14.3 253 4.6 98360 84
2009-03-04 08:42:54 51°14.912 2°53.613 16.6 280 4.6 98360 84
2009-03-04 08:42:59 51°14.919 2°53.588 14.9 251 4.6 98360 85
2009-03-04 08:43:03 51°14.924 2°53.568 16.4 286 4.6 98360 85
2009-03-04 08:43:09 51°14.932 2°53.539 15.3 248 4.6 98410 83
2009-03-04 08:43:15 51°14.94 2°53.509 11.9 283 4.6 98410 83
2009-03-04 08:43:19 51°14.945 2°53.49 17.3 253 4.6 98370 84
2009-03-04 08:43:24 51°14.951 2°53.465 17.1 284 4.6 98370 84
2009-03-04 08:43:29 51°14.958 2°53.44 12.2 251 4.6 98360 84
2009-03-04 08:43:34 51°14.964 2°53.415 16.3 281 4.6 98360 84
2009-03-04 08:43:39 51°14.971 2°53.391 15.6 256 4.6 98360 84
2009-03-04 08:43:43 51°14.976 2°53.371 13.9 278 4.6 98360 84
2009-03-04 08:43:49 51°14.984 2°53.341 12.2 259 4.6 98350 85
2009-03-04 08:43:54 51°14.991 2°53.316 14.1 282 4.6 98350 85
2009-03-04 08:43:59 51°14.997 2°53.291 11.6 252 4.6 98340 85
2009-03-04 08:44:04 51°15.003 2°53.266 12 283 4.6 98340 85
2009-03-04 08:44:09 51°15.01 2°53.241 14.7 254 4.6 98360 85
2009-03-04 08:44:14 51°15.016 2°53.216 11.2 281 4.6 98360 85
2009-03-04 08:44:19 51°15.023 2°53.191 11.6 255 4.6 98380 84
2009-03-04 08:44:24 51°15.029 2°53.166 13.5 283 4.6 98380 84
2009-03-04 08:44:29 51°15.036 2°53.141 11 256 4.6 98370 84
2009-03-04 08:44:35 51°15.044 2°53.111 13.8 281 4.6 98370 84
2009-03-04 08:44:39 51°15.049 2°53.091 14.8 255 4.6 98360 85
2009-03-04 08:44:44 51°15.055 2°53.067 12.8 281 4.6 98360 85
2009-03-04 08:44:49 51°15.062 2°53.041 12.5 252 4.7 98370 84
2009-03-04 08:44:54 51°15.068 2°53.016 15.1 284 4.7 98370 84
2009-03-04 08:44:59 51°15.075 2°52.991 12.2 254 4.6 98360 84
2009-03-04 08:45:03 51°15.08 2°52.971 12.7 286 4.6 98360 84
2009-03-04 08:45:09 51°15.088 2°52.942 12.8 254 4.6 98380 85
2009-03-04 08:45:14 51°15.095 2°52.917 11.2 281 4.6 98380 85
2009-03-04 08:45:19 51°15.101 2°52.892 15.3 252 4.6 98370 84
2009-03-04 08:45:24 51°15.108 2°52.867 14.9 282 4.6 98370 84
2009-03-04 08:45:29 51°15.114 2°52.842 10.3 250 4.6 98370 85
2009-03-04 08:45:35 51°15.122 2°52.812 15.2 285 4.6 98370 85
2009-03-04 08:45:39 51°15.128 2°52.792 14 253 4.6 98350 85
2009-03-04 08:45:43 51°15.133 2°52.772 16.4 282 4.6 98350 85
2009-03-04 08:45:49 51°15.141 2°52.742 16.2 253 4.6 98350 85
2009-03-04 08:45:54 51°15.147 2°52.717 13.3 283 4.6 98350 85
2009-03-04 08:45:59 51°15.153 2°52.691 13 22 4.6 98350 85
2009-03-04 08:46:04 51°15.159 2°52.666 12.9 -999 4.6 98350 85
2009-03-04 08:46:09 51°15.165 2°52.64 13.9 252 4.6 98370 85
2009-03-04 08:46:14 51°15.17 2°52.615 12.8 286 4.6 98370 85
2009-03-04 08:46:19 51°15.175 2°52.589 13.7 252 4.6 98390 84
2009-03-04 08:46:23 51°15.18 2°52.569 13.2 286 4.6 98390 84
2009-03-04 08:46:29 51°15.186 2°52.538 14.5 254 4.6 98360 83
2009-03-04 08:46:34 51°15.192 2°52.512 12.8 283 4.6 98360 83
2009-03-04 08:46:39 51°15.197 2°52.486 12.7 256 4.6 98360 85
2009-03-04 08:46:44 51°15.202 2°52.46 13.5 284 4.6 98360 85
2009-03-04 08:46:49 51°15.207 2°52.434 10.7 252 4.6 98370 84
2009-03-04 08:46:54 51°15.213 2°52.409 15.6 286 4.6 98370 84
2009-03-04 08:46:59 51°15.218 2°52.383 15.2 252 4.6 98370 84
2009-03-04 08:47:03 51°15.222 2°52.362 11.1 -999 4.6 98370 84
2009-03-04 08:47:09 51°15.229 2°52.332 11.2 254 4.6 98380 84
2009-03-04 08:47:14 51°15.235 2°52.306 11.2 278 4.6 98380 84
2009-03-04 08:47:19 51°15.24 2°52.28 14.8 255 4.6 98360 85
2009-03-04 08:47:24 51°15.245 2°52.254 13.5 285 4.6 98360 85
2009-03-04 08:47:29 51°15.25 2°52.229 11.4 254 4.6 98370 85
2009-03-04 08:47:34 51°15.256 2°52.203 12.4 283 4.6 98370 85
2009-03-04 08:47:39 51°15.261 2°52.177 10.8 251 4.6 98370 85
2009-03-04 08:47:43 51°15.265 2°52.157 12.8 281 4.6 98370 85
2009-03-04 08:47:49 51°15.272 2°52.125 14.9 251 4.6 98350 84
2009-03-04 08:47:54 51°15.277 2°52.099 11.1 285 4.6 98350 84
2009-03-04 08:47:59 51°15.283 2°52.074 14.1 254 4.6 98350 84
2009-03-04 08:48:04 51°15.288 2°52.047 12.6 -999 4.6 98350 84
2009-03-04 08:48:09 51°15.293 2°52.022 12.6 21 4.6 98360 84
2009-03-04 08:48:14 51°15.298 2°51.996 12.3 277 4.6 98360 84
2009-03-04 08:48:19 51°15.304 2°51.97 12.2 252 4.6 98340 84
2009-03-04 08:48:24 51°15.309 2°51.944 15.3 281 4.6 98340 84
2009-03-04 08:48:29 51°15.315 2°51.918 16 255 4.6 98320 85
2009-03-04 08:48:34 51°15.32 2°51.892 17.5 283 4.6 98320 85
2009-03-04 08:48:39 51°15.326 2°51.866 10.9 252 4.6 98330 84
2009-03-04 08:48:43 51°15.33 2°51.846 12.8 282 4.6 98330 84
2009-03-04 08:48:49 51°15.336 2°51.814 11.9 249 4.6 98320 84
2009-03-04 08:48:54 51°15.34 2°51.788 13.4 282 4.6 98320 84
2009-03-04 08:48:59 51°15.343 2°51.763 13.7 25 4.6 98320 85
2009-03-04 08:49:04 51°15.345 2°51.736 13.2 -999 4.6 98320 85
2009-03-04 08:49:09 51°15.348 2°51.71 15 21 4.6 98320 84
2009-03-04 08:49:14 51°15.349 2°51.684 16.4 279 4.6 98320 84
2009-03-04 08:49:19 51°15.35 2°51.657 16.5 22 4.6 98330 85
2009-03-04 08:49:23 51°15.35 2°51.636 13.6 284 4.6 98330 85
2009-03-04 08:49:29 51°15.351 2°51.604 14.4 23 4.6 98320 86
2009-03-04 08:49:34 51°15.35 2°51.577 15 282 4.6 98320 86
2009-03-04 08:49:39 51°15.35 2°51.551 14.9 24 4.6 98300 84
2009-03-04 08:49:44 51°15.35 2°51.524 14.7 279 4.6 98300 84
2009-03-04 08:49:49 51°15.349 2°51.497 13.6 26 4.6 98310 86
2009-03-04 08:49:54 51°15.348 2°51.47 13.6 283 4.6 98310 86
2009-03-04 08:49:59 51°15.347 2°51.443 16 23 4.6 98310 86
2009-03-04 08:50:03 51°15.346 2°51.422 16.6 -999 4.6 98310 86
2009-03-04 08:50:09 51°15.345 2°51.39 16.8 23 4.6 98320 86
2009-03-04 08:50:14 51°15.345 2°51.363 16.1 283 4.6 98320 86
2009-03-04 08:50:19 51°15.345 2°51.335 14.4 22 4.6 98310 85
2009-03-04 08:50:24 51°15.344 2°51.308 14.4 283 4.6 98310 85
2009-03-04 08:50:29 51°15.344 2°51.281 14.2 23 4.6 98300 85
2009-03-04 08:50:35 51°15.344 2°51.249 15.2 283 4.6 98300 85
2009-03-04 08:50:39 51°15.344 2°51.227 18.3 23 4.6 98300 85
2009-03-04 08:50:43 51°15.344 2°51.205 18.1 280 4.6 98300 85
2009-03-04 08:50:49 51°15.345 2°51.173 16.2 23 4.6 98310 86
2009-03-04 08:50:54 51°15.345 2°51.146 12.2 278 4.6 98310 86
2009-03-04 08:50:59 51°15.346 2°51.118 11.4 23 4.6 98310 84
2009-03-04 08:51:03 51°15.347 2°51.096 12.7 -999 4.6 98310 84
2009-03-04 08:51:09 51°15.349 2°51.064 15.7 249 4.6 98310 86
2009-03-04 08:51:14 51°15.35 2°51.037 15.5 281 4.6 98310 86
2009-03-04 08:51:19 51°15.351 2°51.009 14.4 250 4.6 98310 86
2009-03-04 08:51:24 51°15.353 2°50.982 15.5 281 4.6 98310 86
2009-03-04 08:51:29 51°15.354 2°50.955 13.7 24 4.6 98320 85
2009-03-04 08:51:34 51°15.356 2°50.928 14.8 285 4.6 98320 85
2009-03-04 08:51:39 51°15.357 2°50.901 15.9 22 4.6 98320 85
2009-03-04 08:51:45 51°15.359 2°50.868 16.2 281 4.6 98320 85
2009-03-04 08:51:49 51°15.36 2°50.846 14.7 250 4.6 98320 85
2009-03-04 08:51:54 51°15.361 2°50.819 14.1 283 4.6 98320 85
2009-03-04 08:51:59 51°15.363 2°50.792 12.5 21 4.6 98320 86
2009-03-04 08:52:03 51°15.364 2°50.77 13 282 4.6 98320 86
2009-03-04 08:52:09 51°15.366 2°50.738 14.7 253 4.6 98310 85
2009-03-04 08:52:15 51°15.368 2°50.705 11.1 286 4.6 98310 85
2009-03-04 08:52:19 51°15.369 2°50.683 13.2 21 4.6 98310 86
2009-03-04 08:52:24 51°15.371 2°50.656 14 279 4.6 98310 86
2009-03-04 08:52:29 51°15.373 2°50.629 16.2 244 4.6 98310 85
2009-03-04 08:52:35 51°15.375 2°50.597 13.6 280 4.6 98310 85
2009-03-04 08:52:39 51°15.376 2°50.575 16.9 22 4.6 98320 86
2009-03-04 08:52:43 51°15.378 2°50.553 15.2 280 4.6 98320 86
2009-03-04 08:52:49 51°15.38 2°50.521 16.8 250 4.6 98310 85
2009-03-04 08:52:54 51°15.383 2°50.494 14.1 282 4.6 98310 85
2009-03-04 08:52:59 51°15.384 2°50.466 15 248 4.6 98310 85
2009-03-04 08:53:04 51°15.386 2°50.439 16.5 282 4.6 98310 85
2009-03-04 08:53:09 51°15.387 2°50.412 12.3 22 4.6 98310 85
2009-03-04 08:53:14 51°15.39 2°50.385 15.5 283 4.6 98310 85
2009-03-04 08:53:19 51°15.391 2°50.358 14.3 246 4.6 98310 85
2009-03-04 08:53:23 51°15.393 2°50.337 15.4 284 4.6 98310 85
2009-03-04 08:53:29 51°15.395 2°50.304 12.7 20 4.6 98310 86
2009-03-04 08:53:34 51°15.397 2°50.277 12.9 279 4.6 98310 86
2009-03-04 08:53:39 51°15.399 2°50.25 12.7 24 4.6 98310 85
2009-03-04 08:53:44 51°15.401 2°50.222 13.2 287 4.6 98310 85
2009-03-04 08:53:49 51°15.403 2°50.195 13 22 4.6 98310 86
2009-03-04 08:53:54 51°15.405 2°50.168 13.2 279 4.6 98310 86
2009-03-04 08:53:59 51°15.406 2°50.141 15.8 23 4.6 98320 86
2009-03-04 08:54:03 51°15.407 2°50.12 12.5 284 4.6 98320 86
2009-03-04 08:54:09 51°15.409 2°50.087 15.9 21 4.6 98310 85
2009-03-04 08:54:15 51°15.411 2°50.055 16.4 278 4.6 98310 85
2009-03-04 08:54:19 51°15.413 2°50.033 13.4 247 4.6 98310 85
2009-03-04 08:54:24 51°15.414 2°50.007 11.3 280 4.6 98310 85
2009-03-04 08:54:30 51°15.417 2°49.974 13.3 20 4.6 98320 85
2009-03-04 08:54:35 51°15.419 2°49.947 14.2 286 4.6 98320 85
2009-03-04 08:54:39 51°15.421 2°49.926 12.5 246 4.6 98310 86
2009-03-04 08:54:43 51°15.422 2°49.904 11 286 4.6 98310 86
2009-03-04 08:54:49 51°15.425 2°49.872 13.9 19 4.6 98310 85
2009-03-04 08:54:54 51°15.427 2°49.845 12.8 287 4.6 98310 85
2009-03-04 08:54:59 51°15.43 2°49.819 11.9 24 4.6 98320 85
2009-03-04 08:55:03 51°15.431 2°49.797 14 286 4.6 98320 85
2009-03-04 08:55:09 51°15.433 2°49.766 12.6 24 4.6 98320 86
2009-03-04 08:55:15 51°15.436 2°49.734 15.9 279 4.6 98320 86
2009-03-04 08:55:19 51°15.437 2°49.712 13.4 248 4.6 98310 86
2009-03-04 08:55:24 51°15.439 2°49.686 13 286 4.6 98310 86
2009-03-04 08:55:28 51°15.441 2°49.664 12.7 22 4.6 98320 86
2009-03-04 08:55:34 51°15.443 2°49.632 12.8 282 4.6 98320 86
2009-03-04 08:55:39 51°15.444 2°49.606 12.8 22 4.6 98310 86
2009-03-04 08:55:44 51°15.446 2°49.579 17.1 282 4.6 98310 86
2009-03-04 08:55:49 51°15.448 2°49.552 18.3 249 4.6 98310 86
2009-03-04 08:55:54 51°15.45 2°49.526 15.8 282 4.6 98310 86
2009-03-04 08:55:59 51°15.452 2°49.499 14.1 247 4.6 98310 85
2009-03-04 08:56:03 51°15.453 2°49.477 14.6 285 4.6 98310 85
2009-03-04 08:56:09 51°15.455 2°49.445 15.7 22 4.6 98310 85
2009-03-04 08:56:14 51°15.457 2°49.419 17.2 281 4.6 98310 85
2009-03-04 08:56:19 51°15.459 2°49.392 12.4 248 4.6 98310 86
2009-03-04 08:56:24 51°15.46 2°49.365 13.9 284 4.6 98310 86
2009-03-04 08:56:29 51°15.462 2°49.338 11.6 248 4.6 98310 86
2009-03-04 08:56:34 51°15.464 2°49.311 12.8 278 4.6 98310 86
2009-03-04 08:56:39 51°15.466 2°49.284 15.3 21 4.6 98300 85
2009-03-04 08:56:43 51°15.467 2°49.263 16.8 283 4.6 98300 85
2009-03-04 08:56:49 51°15.469 2°49.231 16.4 248 4.6 98310 86
2009-03-04 08:56:54 51°15.471 2°49.205 14.9 284 4.6 98310 86
2009-03-04 08:56:59 51°15.473 2°49.178 14.1 22 4.6 98320 86
2009-03-04 08:57:04 51°15.474 2°49.151 11.8 279 4.6 98320 86
2009-03-04 08:57:09 51°15.476 2°49.124 15.3 245 4.6 98310 86
2009-03-04 08:57:15 51°15.478 2°49.092 11.7 280 4.6 98310 86
2009-03-04 08:57:19 51°15.479 2°49.07 13.6 20 4.6 98320 85
2009-03-04 08:57:23 51°15.48 2°49.049 12.4 281 4.6 98320 85
2009-03-04 08:57:29 51°15.482 2°49.017 13.6 20 4.6 98310 85
2009-03-04 08:57:34 51°15.483 2°48.99 16.6 281 4.6 98310 85
2009-03-04 08:57:39 51°15.485 2°48.963 16.3 22 4.6 98320 85
2009-03-04 08:57:44 51°15.486 2°48.937 19 279 4.6 98320 85
2009-03-04 08:57:49 51°15.488 2°48.911 17.9 247 4.6 98310 86
2009-03-04 08:57:54 51°15.489 2°48.884 14.5 283 4.6 98310 86
2009-03-04 08:57:59 51°15.491 2°48.857 15 246 4.6 98310 86
2009-03-04 08:58:03 51°15.493 2°48.836 15.2 -999 4.6 98310 86
2009-03-04 08:58:09 51°15.496 2°48.804 14.9 247 4.6 98310 85
2009-03-04 08:58:15 51°15.498 2°48.772 17 283 4.6 98310 85
2009-03-04 08:58:19 51°15.501 2°48.751 15.9 250 4.6 98300 86
2009-03-04 08:58:23 51°15.503 2°48.73 12.9 284 4.6 98300 86
2009-03-04 08:58:29 51°15.505 2°48.698 16.2 20 4.6 98300 85
2009-03-04 08:58:35 51°15.508 2°48.666 14.5 283 4.6 98300 85
2009-03-04 08:58:39 51°15.51 2°48.645 15.3 21 4.6 98310 85
2009-03-04 08:58:44 51°15.512 2°48.619 15.4 284 4.6 98310 85
2009-03-04 08:58:50 51°15.515 2°48.587 17.5 21 4.6 98310 86
2009-03-04 08:58:55 51°15.517 2°48.561 17.5 283 4.6 98310 86
2009-03-04 08:58:59 51°15.519 2°48.539 15.5 251 4.6 98320 85
2009-03-04 08:59:03 51°15.521 2°48.518 15.1 285 4.6 98320 85
2009-03-04 08:59:09 51°15.524 2°48.486 13.2 22 4.6 98310 85
2009-03-04 08:59:14 51°15.526 2°48.459 14.8 282 4.6 98310 85
2009-03-04 08:59:19 51°15.529 2°48.432 17.1 246 4.6 98300 85
2009-03-04 08:59:24 51°15.531 2°48.405 17.8 283 4.6 98300 85
2009-03-04 08:59:29 51°15.534 2°48.379 14.1 22 4.6 98310 85
2009-03-04 08:59:34 51°15.537 2°48.353 16.7 281 4.6 98310 85
2009-03-04 08:59:39 51°15.54 2°48.326 14.7 20 4.6 98300 85
2009-03-04 08:59:43 51°15.542 2°48.305 15.9 285 4.6 98300 85
2009-03-04 08:59:49 51°15.545 2°48.272 12.2 251 4.6 98310 86
2009-03-04 08:59:54 51°15.547 2°48.246 14.6 279 4.6 98310 86
2009-03-04 08:59:59 51°15.549 2°48.219 12 22 4.5 98310 86
2009-03-04 09:00:03 51°15.551 2°48.197 17.6 279 4.5 98310 86
2009-03-04 09:00:09 51°15.554 2°48.165 15.7 22 4.5 98310 85
2009-03-04 09:00:15 51°15.556 2°48.134 13 278 4.5 98310 85
2009-03-04 09:00:19 51°15.558 2°48.112 11.9 20 4.6 98310 86
2009-03-04 09:00:24 51°15.561 2°48.085 12.3 284 4.6 98310 86
2009-03-04 09:00:29 51°15.563 2°48.058 15.2 25 4.5 98310 86
2009-03-04 09:00:34 51°15.566 2°48.031 12.2 283 4.5 98310 86
2009-03-04 09:00:39 51°15.568 2°48.005 16.8 20 4.6 98310 85
2009-03-04 09:00:45 51°15.572 2°47.973 17.9 284 4.6 98310 85
2009-03-04 09:00:49 51°15.574 2°47.951 18.6 23 4.6 98320 85
2009-03-04 09:00:54 51°15.576 2°47.924 19.7 282 4.6 98320 85
2009-03-04 09:00:59 51°15.578 2°47.898 18.6 250 4.6 98300 85
2009-03-04 09:01:03 51°15.58 2°47.876 16.4 285 4.6 98300 85
2009-03-04 09:01:09 51°15.583 2°47.844 18.3 21 4.6 98290 86
2009-03-04 09:01:15 51°15.586 2°47.812 18.5 283 4.6 98290 86
2009-03-04 09:01:19 51°15.588 2°47.79 18 250 4.6 98290 86
2009-03-04 09:01:24 51°15.59 2°47.763 16.1 285 4.6 98290 86
2009-03-04 09:01:28 51°15.592 2°47.742 14.7 21 4.5 98300 85
2009-03-04 09:01:35 51°15.595 2°47.705 14 284 4.5 98300 85
2009-03-04 09:01:39 51°15.597 2°47.683 15.9 249 4.6 98300 85
2009-03-04 09:01:44 51°15.6 2°47.657 15.7 283 4.6 98300 85
2009-03-04 09:01:49 51°15.602 2°47.63 16.4 246 4.5 98300 85
2009-03-04 09:01:55 51°15.605 2°47.598 18.5 282 4.5 98300 85
2009-03-04 09:01:59 51°15.607 2°47.577 12.7 24 4.5 98290 85
2009-03-04 09:02:03 51°15.609 2°47.555 16.8 282 4.5 98290 85
2009-03-04 09:02:09 51°15.612 2°47.523 19.2 20 4.5 98300 85
2009-03-04 09:02:14 51°15.615 2°47.497 19.1 283 4.5 98300 85
2009-03-04 09:02:19 51°15.617 2°47.47 13.6 23 4.6 98300 85
2009-03-04 09:02:24 51°15.619 2°47.444 12.1 280 4.6 98300 85
2009-03-04 09:02:29 51°15.621 2°47.417 11.9 21 4.6 98320 85
2009-03-04 09:02:34 51°15.623 2°47.39 12.8 283 4.6 98320 85
2009-03-04 09:02:39 51°15.626 2°47.363 15.7 25 4.6 98290 85
2009-03-04 09:02:43 51°15.627 2°47.342 13.7 280 4.6 98290 85
2009-03-04 09:02:49 51°15.63 2°47.31 14.2 20 4.6 98300 86
2009-03-04 09:02:54 51°15.633 2°47.283 13.2 284 4.6 98300 86
2009-03-04 09:02:59 51°15.636 2°47.257 15.6 248 4.6 98310 85
2009-03-04 09:03:04 51°15.638 2°47.23 12.9 286 4.6 98310 85
2009-03-04 09:03:09 51°15.64 2°47.203 12.9 23 4.6 98300 85
2009-03-04 09:03:14 51°15.642 2°47.177 17.2 283 4.6 98300 85
2009-03-04 09:03:19 51°15.644 2°47.15 16.3 248 4.6 98290 86
2009-03-04 09:03:23 51°15.646 2°47.129 16.7 284 4.6 98290 86
2009-03-04 09:03:29 51°15.649 2°47.097 14.2 21 4.6 98310 85
2009-03-04 09:03:35 51°15.652 2°47.064 16.4 285 4.6 98310 85
2009-03-04 09:03:39 51°15.653 2°47.043 18.3 248 4.6 98300 85
2009-03-04 09:03:44 51°15.655 2°47.016 17.7 282 4.6 98300 85
2009-03-04 09:03:49 51°15.657 2°46.989 18.1 250 4.6 98300 86
2009-03-04 09:03:55 51°15.66 2°46.957 13 284 4.6 98300 86
2009-03-04 09:03:59 51°15.661 2°46.935 13.6 20 4.6 98300 85
2009-03-04 09:04:04 51°15.663 2°46.908 12.3 283 4.6 98300 85
2009-03-04 09:04:09 51°15.665 2°46.881 14.5 22 4.6 98300 85
2009-03-04 09:04:15 51°15.668 2°46.849 13.6 286 4.6 98300 85
2009-03-04 09:04:19 51°15.67 2°46.827 13 249 4.6 98290 86
2009-03-04 09:04:24 51°15.672 2°46.8 12.2 284 4.6 98290 86
2009-03-04 09:04:29 51°15.675 2°46.773 14.8 20 4.6 98300 86
2009-03-04 09:04:34 51°15.677 2°46.746 13.6 282 4.6 98300 86
2009-03-04 09:04:39 51°15.68 2°46.719 13.8 250 4.6 98310 85
2009-03-04 09:04:43 51°15.681 2°46.698 14.4 283 4.6 98310 85
2009-03-04 09:04:49 51°15.684 2°46.665 13.5 21 4.6 98310 85
2009-03-04 09:04:54 51°15.686 2°46.638 14.3 285 4.6 98310 85
2009-03-04 09:04:59 51°15.688 2°46.611 14.1 248 4.6 98300 85
2009-03-04 09:05:03 51°15.69 2°46.59 13.6 285 4.6 98300 85
2009-03-04 09:05:09 51°15.693 2°46.558 14.8 20 4.6 98290 85
2009-03-04 09:05:15 51°15.696 2°46.526 15 284 4.6 98290 85
2009-03-04 09:05:19 51°15.698 2°46.504 12.5 26 4.6 98300 85
2009-03-04 09:05:24 51°15.701 2°46.477 16 282 4.6 98300 85
2009-03-04 09:05:29 51°15.703 2°46.45 15.8 248 4.6 98300 85
2009-03-04 09:05:35 51°15.706 2°46.419 13.6 284 4.6 98300 85
2009-03-04 09:05:39 51°15.708 2°46.397 14.8 21 4.5 98290 85
2009-03-04 09:05:44 51°15.711 2°46.37 13.7 284 4.5 98290 85
2009-03-04 09:05:49 51°15.714 2°46.343 14.8 249 4.6 98310 85
2009-03-04 09:05:55 51°15.717 2°46.311 15.2 280 4.6 98310 85
2009-03-04 09:05:59 51°15.721 2°46.29 17.1 255 4.6 98300 85
2009-03-04 09:06:03 51°15.725 2°46.269 15 283 4.6 98300 85
2009-03-04 09:06:09 51°15.731 2°46.237 15.1 257 4.6 98300 85
2009-03-04 09:06:14 51°15.737 2°46.212 12.6 280 4.6 98300 85
2009-03-04 09:06:19 51°15.744 2°46.187 16.2 256 4.5 98300 85
2009-03-04 09:06:23 51°15.749 2°46.166 15.2 280 4.5 98300 85
2009-03-04 09:06:29 51°15.758 2°46.136 14.1 259 4.5 98290 85
2009-03-04 09:06:34 51°15.765 2°46.112 16.9 284 4.5 98290 85
2009-03-04 09:06:39 51°15.773 2°46.087 12.4 259 4.5 98300 86
2009-03-04 09:06:44 51°15.78 2°46.062 13.3 283 4.5 98300 86
2009-03-04 09:06:49 51°15.788 2°46.038 15.1 257 4.5 98320 86
2009-03-04 09:06:54 51°15.797 2°46.014 9.7 285 4.5 98320 86
2009-03-04 09:06:59 51°15.806 2°45.99 8.7 265 4.5 98320 85
2009-03-04 09:07:03 51°15.814 2°45.972 9.4 284 4.5 98320 85
2009-03-04 09:07:09 51°15.826 2°45.945 12.2 259 4.5 98320 86
2009-03-04 09:07:14 51°15.836 2°45.923 11 284 4.5 98320 86
2009-03-04 09:07:19 51°15.847 2°45.901 6.9 263 4.6 98330 86
2009-03-04 09:07:23 51°15.856 2°45.884 6.9 285 4.6 98330 86
2009-03-04 09:07:29 51°15.868 2°45.858 8.3 267 4.5 98320 86
2009-03-04 09:07:35 51°15.882 2°45.833 9.8 285 4.5 98320 86
2009-03-04 09:07:39 51°15.89 2°45.816 7.7 263 4.6 98320 86
2009-03-04 09:07:44 51°15.902 2°45.795 7.7 281 4.6 98320 86
2009-03-04 09:07:49 51°15.913 2°45.774 6.6 262 4.6 98320 86
2009-03-04 09:07:54 51°15.924 2°45.753 7 285 4.6 98320 86
2009-03-04 09:07:59 51°15.936 2°45.734 6.5 264 4.6 98320 85
2009-03-04 09:08:03 51°15.944 2°45.717 8.6 283 4.6 98320 85
2009-03-04 09:08:09 51°15.959 2°45.693 12.4 260 4.6 98320 86
2009-03-04 09:08:14 51°15.97 2°45.672 7.4 283 4.6 98320 86
2009-03-04 09:08:19 51°15.981 2°45.652 7 260 4.6 98330 85
2009-03-04 09:08:23 51°15.991 2°45.636 8.1 287 4.6 98330 85
2009-03-04 09:08:29 51°16.005 2°45.612 8.7 263 4.6 98320 86
2009-03-04 09:08:35 51°16.019 2°45.589 6.3 281 4.6 98320 86
2009-03-04 09:08:39 51°16.028 2°45.573 7 262 4.5 98330 86
2009-03-04 09:08:44 51°16.039 2°45.552 9.1 281 4.5 98330 86
2009-03-04 09:08:49 51°16.05 2°45.533 7.3 261 4.5 98320 85
2009-03-04 09:08:54 51°16.062 2°45.512 6.9 280 4.5 98320 85
2009-03-04 09:08:59 51°16.073 2°45.492 7.4 261 4.5 98330 85
2009-03-04 09:09:03 51°16.082 2°45.476 7 280 4.5 98330 85
2009-03-04 09:09:09 51°16.096 2°45.452 6.8 263 4.5 98330 84
2009-03-04 09:09:14 51°16.107 2°45.431 5.6 281 4.5 98330 84
2009-03-04 09:09:19 51°16.119 2°45.412 7.1 265 4.5 98320 85
2009-03-04 09:09:24 51°16.131 2°45.392 7.1 283 4.5 98320 85
2009-03-04 09:09:29 51°16.142 2°45.372 5.4 268 4.5 98320 85
2009-03-04 09:09:34 51°16.154 2°45.352 8.2 287 4.5 98320 85
2009-03-04 09:09:39 51°16.165 2°45.332 6.9 262 4.5 98330 85
2009-03-04 09:09:45 51°16.179 2°45.308 7.7 284 4.5 98330 85
2009-03-04 09:09:49 51°16.188 2°45.292 7.6 263 4.5 98330 85
2009-03-04 09:09:54 51°16.199 2°45.271 10.1 280 4.5 98330 85
2009-03-04 09:09:59 51°16.211 2°45.251 7.5 262 4.5 98320 86
2009-03-04 09:10:04 51°16.222 2°45.231 6.7 281 4.5 98320 86
2009-03-04 09:10:09 51°16.234 2°45.211 7.1 263 4.5 98330 85
2009-03-04 09:10:14 51°16.245 2°45.19 6.2 279 4.5 98330 85
2009-03-04 09:10:19 51°16.255 2°45.169 9 260 4.5 98330 85
2009-03-04 09:10:23 51°16.265 2°45.153 12.6 279 4.5 98330 85
2009-03-04 09:10:29 51°16.278 2°45.129 9.8 256 4.5 98320 86
2009-03-04 09:10:34 51°16.289 2°45.108 6.4 285 4.5 98320 86
2009-03-04 09:10:39 51°16.301 2°45.087 8.4 261 4.5 98320 85
2009-03-04 09:10:44 51°16.312 2°45.067 9.5 283 4.5 98320 85
2009-03-04 09:10:49 51°16.323 2°45.047 6 263 4.5 98320 85
2009-03-04 09:10:55 51°16.337 2°45.022 9 280 4.5 98320 85
2009-03-04 09:10:59 51°16.346 2°45.006 6 265 4.5 98320 85
2009-03-04 09:11:03 51°16.354 2°44.99 5.5 281 4.5 98320 85
2009-03-04 09:11:09 51°16.368 2°44.965 6.8 261 4.5 98320 86
2009-03-04 09:11:14 51°16.379 2°44.944 7.7 281 4.5 98320 86
2009-03-04 09:11:19 51°16.391 2°44.924 7.6 262 4.5 98320 84
2009-03-04 09:11:24 51°16.402 2°44.903 6.3 284 4.5 98320 84
2009-03-04 09:11:29 51°16.413 2°44.883 6.3 267 4.5 98320 85
2009-03-04 09:11:34 51°16.424 2°44.863 6.8 282 4.5 98320 85
2009-03-04 09:11:39 51°16.435 2°44.843 8.3 263 4.5 98330 86
2009-03-04 09:11:43 51°16.445 2°44.826 10.3 279 4.5 98330 86
2009-03-04 09:11:49 51°16.458 2°44.801 9.3 261 4.5 98320 86
2009-03-04 09:11:54 51°16.469 2°44.781 7.4 280 4.5 98320 86
2009-03-04 09:11:59 51°16.48 2°44.759 7.7 259 4.5 98320 85
2009-03-04 09:12:04 51°16.491 2°44.739 6.8 285 4.5 98320 85
2009-03-04 09:12:09 51°16.502 2°44.718 8.9 262 4.5 98320 86
2009-03-04 09:12:14 51°16.513 2°44.697 5.2 286 4.5 98320 86
2009-03-04 09:12:19 51°16.525 2°44.676 11.1 258 4.5 98320 86
2009-03-04 09:12:23 51°16.534 2°44.659 8.6 282 4.5 98320 86
2009-03-04 09:12:29 51°16.547 2°44.634 9.4 263 4.5 98320 85
2009-03-04 09:12:35 51°16.561 2°44.609 8.4 279 4.5 98320 85
2009-03-04 09:12:39 51°16.57 2°44.592 8.1 266 4.5 98320 85
2009-03-04 09:12:44 51°16.581 2°44.572 7.4 280 4.5 98320 85
2009-03-04 09:12:49 51°16.592 2°44.55 8.5 260 4.5 98320 85
2009-03-04 09:12:55 51°16.606 2°44.526 7.1 280 4.5 98320 85
2009-03-04 09:12:59 51°16.615 2°44.509 8.9 260 4.5 98320 85
2009-03-04 09:13:03 51°16.624 2°44.492 9.4 286 4.5 98320 85
2009-03-04 09:13:09 51°16.637 2°44.466 7.5 266 4.5 98320 85
2009-03-04 09:13:15 51°16.651 2°44.442 7.3 280 4.5 98320 85
2009-03-04 09:13:19 51°16.66 2°44.424 7 265 4.5 98310 85
2009-03-04 09:13:23 51°16.669 2°44.408 9 282 4.5 98310 85
2009-03-04 09:13:29 51°16.683 2°44.383 6.6 260 4.5 98310 86
2009-03-04 09:13:35 51°16.696 2°44.357 8.2 280 4.5 98310 86
2009-03-04 09:13:39 51°16.705 2°44.34 5.8 266 4.5 98310 85
2009-03-04 09:13:44 51°16.716 2°44.319 8.9 279 4.5 98310 85
2009-03-04 09:13:48 51°16.725 2°44.302 6.7 266 4.5 98310 84
2009-03-04 09:13:54 51°16.738 2°44.277 9 280 4.5 98310 84
2009-03-04 09:13:59 51°16.749 2°44.255 7.6 261 4.5 98310 85
2009-03-04 09:14:04 51°16.76 2°44.234 8.3 286 4.5 98310 85
2009-03-04 09:14:09 51°16.77 2°44.212 7.6 264 4.5 98310 84
2009-03-04 09:14:14 51°16.781 2°44.191 6.6 279 4.5 98310 84
2009-03-04 09:14:19 51°16.792 2°44.17 9.3 265 4.5 98310 85
2009-03-04 09:14:24 51°16.803 2°44.149 8.7 282 4.5 98310 85
2009-03-04 09:14:29 51°16.814 2°44.128 8.1 261 4.5 98310 86
2009-03-04 09:14:34 51°16.825 2°44.107 8.7 283 4.5 98310 86
2009-03-04 09:14:39 51°16.835 2°44.086 7.2 267 4.5 98310 86
2009-03-04 09:14:44 51°16.846 2°44.065 8.9 282 4.5 98310 86
2009-03-04 09:14:49 51°16.857 2°44.044 9.1 261 4.5 98310 85
2009-03-04 09:14:54 51°16.868 2°44.023 10.1 284 4.5 98310 85
2009-03-04 09:14:59 51°16.878 2°44.002 6.7 263 4.5 98310 86
2009-03-04 09:15:04 51°16.889 2°43.981 7.3 285 4.5 98310 86
2009-03-04 09:15:09 51°16.9 2°43.96 7.4 265 4.5 98310 85
2009-03-04 09:15:15 51°16.913 2°43.935 7.6 286 4.5 98310 85
2009-03-04 09:15:19 51°16.921 2°43.917 7.8 267 4.5 98310 85
2009-03-04 09:15:24 51°16.933 2°43.897 7.9 281 4.5 98310 85
2009-03-04 09:15:28 51°16.941 2°43.879 6.2 269 4.5 98310 86
2009-03-04 09:15:34 51°16.954 2°43.854 8.7 284 4.5 98310 86
2009-03-04 09:15:39 51°16.964 2°43.832 5.7 267 4.5 98310 86
2009-03-04 09:15:44 51°16.975 2°43.812 6.6 285 4.5 98310 86
2009-03-04 09:15:49 51°16.986 2°43.79 8.6 261 4.5 98310 86
2009-03-04 09:15:54 51°16.997 2°43.769 6.8 286 4.5 98310 86
2009-03-04 09:15:59 51°17.007 2°43.747 8.6 260 4.5 98320 85
2009-03-04 09:16:04 51°17.018 2°43.726 8.8 278 4.5 98320 85
2009-03-04 09:16:09 51°17.029 2°43.705 8.5 257 4.5 98310 85
2009-03-04 09:16:14 51°17.04 2°43.684 8.2 285 4.5 98310 85
2009-03-04 09:16:19 51°17.051 2°43.663 9.4 257 4.5 98310 86
2009-03-04 09:16:23 51°17.06 2°43.646 10.7 286 4.5 98310 86
2009-03-04 09:16:29 51°17.072 2°43.621 10 261 4.5 98310 86
2009-03-04 09:16:34 51°17.083 2°43.599 9.5 279 4.5 98310 86
2009-03-04 09:16:39 51°17.094 2°43.579 10.2 259 4.5 98310 86
2009-03-04 09:16:44 51°17.105 2°43.558 11.3 286 4.5 98310 86
2009-03-04 09:16:49 51°17.116 2°43.538 11.2 255 4.5 98310 86
2009-03-04 09:16:55 51°17.129 2°43.512 11.1 283 4.5 98310 86
2009-03-04 09:16:59 51°17.138 2°43.496 9.5 255 4.5 98320 86
2009-03-04 09:17:04 51°17.148 2°43.474 6 280 4.5 98320 86
2009-03-04 09:17:10 51°17.161 2°43.449 7.7 262 4.5 98310 85
2009-03-04 09:17:15 51°17.172 2°43.428 8.3 285 4.5 98310 85
2009-03-04 09:17:19 51°17.181 2°43.411 13.3 258 4.5 98310 86
2009-03-04 09:17:24 51°17.192 2°43.39 9.1 282 4.5 98310 86
2009-03-04 09:17:29 51°17.203 2°43.369 9.1 258 4.6 98320 86
2009-03-04 09:17:35 51°17.215 2°43.343 7.2 283 4.6 98320 86
2009-03-04 09:17:39 51°17.224 2°43.326 6.2 262 4.5 98310 86
2009-03-04 09:17:44 51°17.235 2°43.305 6.2 282 4.5 98310 86
2009-03-04 09:17:49 51°17.245 2°43.284 5.8 262 4.5 98310 85
2009-03-04 09:17:54 51°17.256 2°43.262 5.2 287 4.5 98310 85
2009-03-04 09:17:59 51°17.267 2°43.241 9.8 260 4.5 98310 85
2009-03-04 09:18:04 51°17.278 2°43.22 7.4 279 4.5 98310 85
2009-03-04 09:18:09 51°17.289 2°43.199 7.2 260 4.5 98320 86
2009-03-04 09:18:14 51°17.3 2°43.178 7 286 4.5 98320 86
2009-03-04 09:18:19 51°17.311 2°43.156 6.7 263 4.5 98330 86
2009-03-04 09:18:23 51°17.319 2°43.139 11.1 280 4.5 98330 86
2009-03-04 09:18:29 51°17.332 2°43.114 7.7 264 4.5 98310 86
2009-03-04 09:18:34 51°17.343 2°43.092 5.5 280 4.5 98310 86
2009-03-04 09:18:39 51°17.355 2°43.072 8.5 260 4.5 98310 86
2009-03-04 09:18:45 51°17.368 2°43.046 6.8 286 4.5 98310 86
2009-03-04 09:18:49 51°17.376 2°43.029 7.1 266 4.5 98310 86
2009-03-04 09:18:54 51°17.388 2°43.008 8.6 281 4.5 98310 86
2009-03-04 09:18:59 51°17.398 2°42.986 9.3 262 4.5 98310 86
2009-03-04 09:19:05 51°17.411 2°42.961 6.9 282 4.5 98310 86
2009-03-04 09:19:09 51°17.42 2°42.944 5.2 262 4.5 98310 86
2009-03-04 09:19:14 51°17.431 2°42.923 7.6 281 4.5 98310 86
2009-03-04 09:19:19 51°17.442 2°42.903 7.3 263 4.5 98310 86
2009-03-04 09:19:24 51°17.453 2°42.882 10.6 285 4.5 98310 86
2009-03-04 09:19:28 51°17.461 2°42.866 9.4 263 4.5 98310 85
2009-03-04 09:19:35 51°17.477 2°42.835 9.4 282 4.5 98310 85
2009-03-04 09:19:39 51°17.486 2°42.819 9 256 4.5 98320 85
2009-03-04 09:19:44 51°17.497 2°42.798 7.6 281 4.5 98320 85
2009-03-04 09:19:48 51°17.506 2°42.78 9.7 259 4.5 98300 86
2009-03-04 09:19:55 51°17.522 2°42.752 12.3 280 4.5 98300 86
2009-03-04 09:19:59 51°17.53 2°42.734 11.2 260 4.6 98310 86
2009-03-04 09:20:04 51°17.542 2°42.714 12.9 282 4.6 98310 86
2009-03-04 09:20:09 51°17.552 2°42.691 13.5 258 4.6 98310 86
2009-03-04 09:20:14 51°17.564 2°42.671 11.6 285 4.6 98310 86
2009-03-04 09:20:19 51°17.574 2°42.648 9.5 260 4.6 98300 85
2009-03-04 09:20:23 51°17.583 2°42.632 10.4 285 4.6 98300 85
2009-03-04 09:20:29 51°17.596 2°42.607 9.2 260 4.6 98300 86
2009-03-04 09:20:34 51°17.606 2°42.584 10.4 281 4.6 98300 86
2009-03-04 09:20:39 51°17.618 2°42.564 12.1 256 4.5 98300 86
2009-03-04 09:20:43 51°17.625 2°42.546 11.4 282 4.5 98300 86
2009-03-04 09:20:49 51°17.639 2°42.521 12.9 260 4.6 98310 86
2009-03-04 09:20:54 51°17.649 2°42.5 11.3 284 4.6 98310 86
2009-03-04 09:20:59 51°17.66 2°42.478 9.4 261 4.6 98310 85
2009-03-04 09:21:04 51°17.67 2°42.456 11.1 284 4.6 98310 85
2009-03-04 09:21:09 51°17.681 2°42.436 7.9 260 4.6 98320 86
2009-03-04 09:21:15 51°17.694 2°42.41 7.9 279 4.6 98320 86
2009-03-04 09:21:19 51°17.703 2°42.393 10 262 4.6 98300 85
2009-03-04 09:21:24 51°17.713 2°42.371 7.6 283 4.6 98300 85
2009-03-04 09:21:30 51°17.726 2°42.345 11.6 260 4.5 98310 85
2009-03-04 09:21:35 51°17.737 2°42.324 7.6 284 4.5 98310 85
2009-03-04 09:21:39 51°17.745 2°42.306 8.8 260 4.6 98310 85
2009-03-04 09:21:44 51°17.756 2°42.285 10.4 286 4.6 98310 85
2009-03-04 09:21:49 51°17.768 2°42.264 11.4 262 4.5 98310 86
2009-03-04 09:21:55 51°17.781 2°42.239 10.7 286 4.5 98310 86
2009-03-04 09:21:59 51°17.79 2°42.222 10.2 260 4.6 98310 86
2009-03-04 09:22:04 51°17.8 2°42.2 8 281 4.6 98310 86
2009-03-04 09:22:09 51°17.812 2°42.18 9.4 260 4.6 98310 86
2009-03-04 09:22:15 51°17.825 2°42.154 7.8 285 4.6 98310 86
2009-03-04 09:22:19 51°17.834 2°42.138 10.4 262 4.6 98300 86
2009-03-04 09:22:24 51°17.845 2°42.117 9.9 284 4.6 98300 86
2009-03-04 09:22:29 51°17.856 2°42.095 8.7 262 4.6 98310 85
2009-03-04 09:22:35 51°17.87 2°42.07 8.6 283 4.6 98310 85
2009-03-04 09:22:39 51°17.879 2°42.053 7.9 260 4.6 98300 86
2009-03-04 09:22:44 51°17.89 2°42.032 10.7 283 4.6 98300 86
2009-03-04 09:22:49 51°17.901 2°42.012 8.9 266 4.6 98300 86
2009-03-04 09:22:54 51°17.912 2°41.99 7.9 285 4.6 98300 86
2009-03-04 09:22:59 51°17.923 2°41.97 8.3 263 4.6 98300 85
2009-03-04 09:23:04 51°17.934 2°41.949 6 285 4.6 98300 85
2009-03-04 09:23:08 51°17.943 2°41.932 6.9 261 4.6 98310 86
2009-03-04 09:23:15 51°17.958 2°41.902 7.8 286 4.6 98310 86
2009-03-04 09:23:19 51°17.967 2°41.885 5.9 262 4.6 98310 84
2009-03-04 09:23:24 51°17.978 2°41.864 6.2 285 4.6 98310 84
2009-03-04 09:23:29 51°17.989 2°41.843 10.2 259 4.6 98310 86
2009-03-04 09:23:35 51°18.002 2°41.818 9.7 278 4.6 98310 86
2009-03-04 09:23:39 51°18.011 2°41.801 7.7 263 4.6 98310 85
2009-03-04 09:23:44 51°18.022 2°41.78 8.9 282 4.6 98310 85
2009-03-04 09:23:49 51°18.033 2°41.758 6.4 263 4.6 98310 85
2009-03-04 09:23:55 51°18.046 2°41.734 7.6 281 4.6 98310 85
2009-03-04 09:23:59 51°18.055 2°41.717 8.2 260 4.6 98300 86
2009-03-04 09:24:04 51°18.065 2°41.696 8.4 281 4.6 98300 86
2009-03-04 09:24:10 51°18.078 2°41.671 9.3 259 4.6 98320 85
2009-03-04 09:24:15 51°18.089 2°41.65 7 283 4.6 98320 85
2009-03-04 09:24:19 51°18.098 2°41.633 6.9 260 4.6 98310 85
2009-03-04 09:24:24 51°18.108 2°41.612 8 281 4.6 98310 85
2009-03-04 09:24:29 51°18.119 2°41.591 9.1 260 4.6 98310 85
2009-03-04 09:24:35 51°18.133 2°41.566 9.1 284 4.6 98310 85
2009-03-04 09:24:39 51°18.141 2°41.549 8.9 257 4.6 98300 85
2009-03-04 09:24:44 51°18.152 2°41.527 7.2 287 4.6 98300 85
2009-03-04 09:24:49 51°18.163 2°41.507 9.1 261 4.6 98320 86
2009-03-04 09:24:55 51°18.176 2°41.482 8.7 279 4.6 98320 86
2009-03-04 09:24:59 51°18.185 2°41.466 6.3 262 4.6 98300 86
2009-03-04 09:25:04 51°18.195 2°41.444 6.6 283 4.6 98300 86
2009-03-04 09:25:08 51°18.204 2°41.428 9.8 262 4.6 98310 85
2009-03-04 09:25:14 51°18.217 2°41.403 10.1 282 4.6 98310 85
2009-03-04 09:25:19 51°18.227 2°41.381 11.5 257 4.6 98300 85
2009-03-04 09:25:24 51°18.238 2°41.361 10.6 285 4.6 98300 85
2009-03-04 09:25:30 51°18.251 2°41.335 9.5 261 4.6 98310 86
2009-03-04 09:25:35 51°18.262 2°41.315 9.2 279 4.6 98310 86
2009-03-04 09:25:39 51°18.27 2°41.297 9.9 259 4.6 98300 86
2009-03-04 09:25:44 51°18.282 2°41.276 6.2 279 4.6 98300 86
2009-03-04 09:25:49 51°18.291 2°41.253 7.2 265 4.6 98300 85
2009-03-04 09:25:55 51°18.305 2°41.229 11.3 282 4.6 98300 85
2009-03-04 09:25:59 51°18.313 2°41.212 8.4 261 4.6 98300 86
2009-03-04 09:26:04 51°18.324 2°41.191 9.4 281 4.6 98300 86
2009-03-04 09:26:09 51°18.334 2°41.169 8 257 4.6 98300 85
2009-03-04 09:26:15 51°18.348 2°41.145 9.3 285 4.6 98300 85
2009-03-04 09:26:19 51°18.356 2°41.127 6.3 264 4.6 98300 85
2009-03-04 09:26:24 51°18.368 2°41.107 9.6 280 4.6 98300 85
2009-03-04 09:26:28 51°18.376 2°41.089 8.7 262 4.6 98290 85
2009-03-04 09:26:35 51°18.392 2°41.06 9.7 283 4.6 98290 85
2009-03-04 09:26:39 51°18.4 2°41.042 9.8 259 4.6 98300 86
2009-03-04 09:26:44 51°18.411 2°41.021 7.8 280 4.6 98300 86
2009-03-04 09:26:49 51°18.422 2°41 6.7 265 4.6 98290 85
2009-03-04 09:26:54 51°18.433 2°40.978 9.6 283 4.6 98290 85
2009-03-04 09:26:59 51°18.444 2°40.958 9.8 261 4.6 98300 86
2009-03-04 09:27:04 51°18.454 2°40.935 6.3 285 4.6 98300 86
2009-03-04 09:27:09 51°18.466 2°40.915 11.5 255 4.6 98300 85
2009-03-04 09:27:15 51°18.478 2°40.889 9.7 279 4.6 98300 85
2009-03-04 09:27:19 51°18.486 2°40.871 8.5 263 4.6 98300 86
2009-03-04 09:27:24 51°18.498 2°40.851 8.2 284 4.6 98300 86
2009-03-04 09:27:29 51°18.508 2°40.829 8.9 259 4.6 98300 85
2009-03-04 09:27:35 51°18.522 2°40.804 10.4 278 4.6 98300 85
2009-03-04 09:27:39 51°18.531 2°40.786 8.9 264 4.6 98310 85
2009-03-04 09:27:44 51°18.542 2°40.765 10.8 281 4.6 98310 85
2009-03-04 09:27:50 51°18.556 2°40.741 9.1 258 4.6 98290 85
2009-03-04 09:27:55 51°18.567 2°40.72 10 283 4.6 98290 85
2009-03-04 09:27:59 51°18.576 2°40.704 8 263 4.6 98300 86
2009-03-04 09:28:04 51°18.588 2°40.684 7.4 279 4.6 98300 86
2009-03-04 09:28:09 51°18.6 2°40.664 7.8 263 4.6 98310 85
2009-03-04 09:28:15 51°18.615 2°40.641 8.6 281 4.6 98310 85
2009-03-04 09:28:19 51°18.624 2°40.625 7.2 263 4.6 98290 85
2009-03-04 09:28:24 51°18.637 2°40.606 11.8 285 4.6 98290 85
2009-03-04 09:28:30 51°18.651 2°40.583 8.8 263 4.6 98300 85
2009-03-04 09:28:35 51°18.664 2°40.564 9.6 281 4.6 98300 85
2009-03-04 09:28:39 51°18.673 2°40.549 8.7 260 4.6 98310 84
2009-03-04 09:28:44 51°18.686 2°40.53 8.8 280 4.6 98310 84
2009-03-04 09:28:48 51°18.695 2°40.514 12.2 258 4.6 98300 85
2009-03-04 09:28:55 51°18.712 2°40.487 8.8 284 4.6 98300 85
2009-03-04 09:28:59 51°18.723 2°40.472 9.7 261 4.6 98290 85
2009-03-04 09:29:04 51°18.734 2°40.451 7.8 280 4.6 98290 85
2009-03-04 09:29:09 51°18.747 2°40.434 10.7 261 4.6 98300 85
2009-03-04 09:29:14 51°18.758 2°40.412 8.5 281 4.6 98300 85
2009-03-04 09:29:19 51°18.771 2°40.394 7.1 260 4.6 98300 86
2009-03-04 09:29:24 51°18.783 2°40.374 7.2 280 4.6 98300 86
2009-03-04 09:29:29 51°18.795 2°40.355 7.3 263 4.6 98290 85
2009-03-04 09:29:34 51°18.807 2°40.334 9 284 4.6 98290 85
2009-03-04 09:29:39 51°18.819 2°40.314 8.8 266 4.6 98300 85
2009-03-04 09:29:44 51°18.831 2°40.294 8.1 279 4.6 98300 85
2009-03-04 09:29:48 51°18.839 2°40.278 7.6 263 4.6 98290 85
2009-03-04 09:29:55 51°18.856 2°40.249 6.1 284 4.6 98290 85
2009-03-04 09:29:59 51°18.865 2°40.233 10.1 263 4.6 98290 84
2009-03-04 09:30:04 51°18.877 2°40.213 8.6 284 4.6 98290 84
2009-03-04 09:30:09 51°18.888 2°40.192 10.4 267 4.6 98290 85
2009-03-04 09:30:15 51°18.903 2°40.17 7 284 4.6 98290 85
2009-03-04 09:30:19 51°18.912 2°40.153 9 268 4.6 98280 84
2009-03-04 09:30:24 51°18.924 2°40.134 10.4 281 4.6 98280 84
2009-03-04 09:30:29 51°18.936 2°40.113 7.3 266 4.6 98270 85
2009-03-04 09:30:35 51°18.95 2°40.089 10.3 285 4.6 98270 85
2009-03-04 09:30:39 51°18.959 2°40.073 8.5 257 4.6 98280 84